AirNav   Pilot Hours Calculator
 
 766 users online  

T94 Twin-Oaks Airport
San Antonio, Texas, USA

GOING TO SAN ANTONIO?


FAA INFORMATION EFFECTIVE 26 MARCH 2020

Location

FAA Identifier: T94
Lat/Long: 29-34-12.6730N 098-28-06.2010W
29-34.211217N 098-28.103350W
29.5701869,-98.4683892
(estimated)
Elevation: 873 ft. / 266 m (estimated)
Variation: 07E (1985)
From city: 3 miles N of SAN ANTONIO, TX
Time zone: UTC -5 (UTC -6 during Standard Time)
Zip code: 78232

Airport Operations

Airport use: Open to the public
Activation date: 03/1964
Control tower: no
ARTCC: HOUSTON CENTER
FSS: SAN ANGELO FLIGHT SERVICE STATION
NOTAMs facility: SJT (NOTAM-D service available)
Attendance: UNATNDD
Wind indicator: yes
Segmented circle: no

Airport Communications

CTAF: 122.9
WX ASOS at SAT (2.2 nm S): PHONE 210-805-5583
WX ASOS at SSF (14 nm S): PHONE 210-927-9391
WX AWOS-3 at 5C1 (15 nm NW): 118.725 (830-755-9099)

Nearby radio navigation aids

VOR radial/distance  VOR name  Freq  Var
SATr177/4.4SAN ANTONIO VORTAC116.8008E
RNDr283/10.0RANDOLPH VORTAC112.3005E
SSFr347/(18.8)STINSON VOR108.4009E

 
NDB name  Hdg/Dist  Freq  Var  ID
ALAMO109/5.736804EAN .- -.
DEVINE037/35.735907EHHH .... .... ....
HONDO064/38.632908EHMA .... -- .-

Airport Services

Parking: hangars and tiedowns
Airframe service: MINOR
Powerplant service: MINOR
Bulk oxygen: NONE

Runway Information

Runway 12/30

Dimensions: 2225 x 30 ft. / 678 x 9 m
Surface: asphalt, in fair condition
Weight bearing capacity: 
Single wheel: 4.0
Runway edge markings: RY NUMBERS 10 FT TALL; CNTRLN STRIPE 20 FT LONG WITH 20 FT SPACES.
RUNWAY 12  RUNWAY 30
Traffic pattern: leftleft
Markings: NSTD, in good conditionNSTD, in good condition
Obstructions: 65 ft. trees, 200 ft. from runway
+6 FT FENCE 30 FT L; ACES ROAD 50 FT R; BLDGS 60-100 FT L OF EXTDD CNTRLN; +30 FT TREE 17 FT FM RY END; +30-50 FT TREES FM THLD TO 200 FT FM THLD ACRS APCH; 5 FT FENCE 23 FT FM THLD ACRS APCH; 15 FT ROAD 34 FT FM THLD ACRS APCH.
34 ft. tree, 200 ft. from runway
6 FT FENCE 40 FT EAST OF RY; 5 FT FENCE 23 FT FM THLD ACROSS APPROACH; 13 FT ROAD 33 FT FM THLD ACROSS APPROACH.

Airport Ownership and Management from official FAA records

Ownership: Privately-owned
Owner: TWIN OAKS AIR PARK
630 HEIMER RD
SAN ANTONIO, TX 78232
Phone 210-494-3928
Manager: SHIRLEY FOWLER
630 HEIMER RD
SAN ANTONIO, TX 78232
Phone 210-494-3928

Airport Operational Statistics

Aircraft based on the field: 12
Single engine airplanes: 12
    
Aircraft operations: avg 48/month *
87% local general aviation
13% transient general aviation
* for 12-month period ending 12 May 2017

Additional Remarks

HGRS, TREES, BLDGS WITHIN 50' OF RWY.
RESIDENTAL HOUSES, HANGARS AND TREES OBSTRUCT RY PRIM SFC NORTHEAST OF RY.
ARPT CLSD AT NIGHT TO TRANSIENT ACFT.
WOODEN FENCE LCTD APRXLY 70 FT EAST OF RY ENTIRE LENGTH OF RY.
COORD ARR & DEP WITH SAN ANTONIO INTL ATCT.
FOR CD CTC SAN ANTONIO APCH AT 210-805-5516.

Instrument Procedures

There are no published instrument procedures at T94.

Some nearby airports with instrument procedures:

KSAT - San Antonio International Airport (2 nm S)
KRND - Randolph Air Force Base (10 nm E)
KSKF - Kelly Field Airport (13 nm SW)
KSSF - Stinson Municipal Airport (14 nm S)
5C1 - Boerne Stage Field Airport (15 nm NW)
 
Loc | Ops | Rwys | IFR | FBO | Links
Com | Nav | Svcs | Stats | Notes
Area around T94 (Twin-Oaks Airport)
 
Road maps at: MapQuest Bing Google
 
Aerial photo
WARNING: Photo may not be current or correct
Aerial photo of T94 (Twin-Oaks Airport)
Do you have a better or more recent aerial photo of Twin-Oaks Airport that you would like to share? If so, please send us your photo.

 
Sectional chart

 
Airport distance calculator
Flying to Twin-Oaks Airport? Find the distance to fly.

From to T94

Sunrise and sunset
Times for 04-Apr-2020
 Local
(UTC-5)
 Zulu
(UTC)
Morning civil twilight06:5611:56
Sunrise07:2012:20
Sunset19:5400:54
Evening civil twilight20:1801:18

Current date and time
Zulu (UTC)  04-Apr-2020 13:54:15
Local (UTC-5)  04-Apr-2020 08:54:15
 
METAR
KSAT 
2nm S 
041251Z 01010KT 10SM FEW007 OVC016 10/08 A3000 RMK AO2 SLP146 T01000078
KRND 
11nm E 
041256Z AUTO 02007KT 10SM OVC006 10/06 A3000 RMK AO2 SLP158 T00970064 $
KSKF 
13nm SW 
041256Z AUTO 03010KT 10SM OVC010 11/09 A2997 RMK AO2 SLP148 T01090088 $
KSSF 
14nm S 
041253Z 02009KT 10SM BKN009 OVC016 10/09 A2998 RMK AO2 SLP150 T01000094
K5C1 
15nm NW 
041315Z AUTO 36006KT 10SM BKN006 OVC011 07/07 A3003 RMK AO1
TAF
KSAT 
2nm S 
041125Z 0412/0518 02009KT P6SM VCSH OVC007 FM041300 02011KT 3SM SHRA VCTS OVC006CB FM050000 01008KT 6SM BR OVC007 FM051200 01005KT 3SM BR OVC005
KRND 
11nm E 
031845Z 0318/0422 07010G15KT 6000 -TSRA FEW010 BKN030CB OVC100 510009 QNH2975INS TEMPO 0320/0324 VRB25G35KT 1600 +TSRAGR SCT009 OVC015CB BECMG 0401/0402 03015G25KT 8000 -SHRA BKN012 OVC030 510009 QNH2980INS BECMG 0406/0407 02015G25KT 9999 NSW OVC009 510009 QNH2996INS BECMG 0413/0414 02012G20KT 8000 -SHRA SCT007 OVC010 QNH3000INS TX25/0320Z TN11/0413Z LAST NO AMDS AFT 0319 NEXT 0514
KSKF 
13nm SW 
041000Z 0410/0516 02009KT 8000 BR OVC007 QNH2988INS BECMG 0413/0414 02012KT 4800 -SHRA BR OVC006 QNH2992INS BECMG 0423/0424 02008KT 8000 BR OVC007 QNH2988INS TX15/0422Z TN10/0413Z
KSSF 
14nm S 
041125Z 0412/0512 03009KT P6SM VCSH OVC008 FM041300 02011KT 3SM SHRA VCTS OVC006CB FM050000 02005KT 6SM BR OVC007
NOTAMs
Click for the latest NOTAMs
NOTAMs are issued by the DoD/FAA and will open in a separate window not controlled by AirNav.

 

 
 

Would you like to see your business listed on this page?

 If your business provides an interesting product or service to pilots, flight crews, aircraft, or users of the Twin-Oaks Airport, you should consider listing it here.  To start the listing process, click on the button below
 
Add a business
 

Other Pages about Twin-Oaks Airport

Update a link
 
Copyright © AirNav, LLC. All rights reserved. Privacy Policy  Contact